Powrót do katalogu

STARLINK-30867

AktywnyŁącznośćVLEO
NORAD 58231·PAYLOAD·🇺🇸 United States

Wystrzelony Nov 8, 2023 z Cape Canaveral Space Force Station

Loading…

Następne Przeloty (najbliższe 24 godziny)

TLE

ŚwieżeSource: CelesTrak SupGP

Epoka: Sep 14, 2026, 22:00 UTC

1 58231C 23171B   26257.91715278 -.00009128  00000+0 -33065-3 0  2573
2 58231  43.0021 296.2693 0001396 259.9716 259.2880 15.27578994    18

Śledź STARLINK-30867 w czasie rzeczywistym z AllMySat

Download on the App Store